Location: Peebles
(55.6412°N, 3.1714°W)
Time: 20:19:41
(UTC+01:00)

Tiros 1 - Visible Passes

Search period start: 02 October 2022 00:00
Search period end: 12 October 2022 00:00
Orbit: 629 x 663 km, 48.4° (Epoch: 02 October)

Date Brightness Start Highest point End Pass type
(mag) Time Alt. Az. Time Alt. Az. Time Alt. Az.
02 Oct 9.1 03:55:11 20° SE 03:55:11 20° SE 03:56:54 10° ESE visible
02 Oct 8.4 05:32:50 22° SW 05:34:02 25° SSW 05:37:52 10° SSE visible
03 Oct 8.8 04:19:59 22° SSE 04:19:59 22° SSE 04:22:08 10° SE visible
03 Oct 8.8 05:57:38 15° SW 05:59:12 17° SSW 06:02:16 10° S visible
04 Oct 8.8 04:44:53 21° SSE 04:44:53 21° SSE 04:47:06 10° SE visible
04 Oct 9.2 06:23:18 10° SW 06:24:12 10° SW 06:25:06 10° SSW visible
05 Oct 9.0 05:09:55 16° S 05:09:55 16° S 05:11:36 10° SSE visible
